Weather History for KPOV - March, 2014

Change the Weather History Date:

Wednesday, March 26, 2014

  Actual Average (KCAK) Record (KCAK)
Temperature  
Mean Temperature 18 °F 41 °F  
Max Temperature 26 °F 51 °F 78 °F (1967)
Min Temperature 11 °F 32 °F 10 °F (2001)
Degree Days  
Heating Degree Days 46 24  
Month to date heating degree days 738  
Since 1 July heating degree days 5282  
Cooling Degree Days 0 0  
Month to date cooling degree days 0  
Year to date cooling degree days 0  
Moisture  
Dew Point 9 °F    
Average Humidity 65    
Maximum Humidity 89    
Minimum Humidity 43    
Precipitation  
Precipitation 0.01 in 0.10 in 0.72 in (1978)
Month to date precipitation 2.43  
Year to date precipitation 7.35  
Snow  
Snow 0.00 in 0.20 in - ()
Month to date snowfall 7.3  
Since 1 July snowfall 43.8  
Snow Depth -    
Sea Level Pressure  
Sea Level Pressure 30.21 in    
Wind  
Wind Speed 7 mph (NW)    
Max Wind Speed 16 mph    
Max Gust Speed 21 mph    
Visibility 9 miles    
Events Snow    
T = Trace of Precipitation, MM = Missing Value Source: NWS Daily Summary

Daily Weather History Graph

Daily Weather History Graph

Search for Another Location

Airport or City:

Trip Planner

Search our weather history database for the weather conditions in past years. The results will help you decide how hot, cold, wet, or windy it might be!

Date:

Astronomy

Mar. 26, 2014 Rise Set
Actual Time 7:18 AM EDT 7:43 PM EDT
Civil Twilight 6:50 AM EDT 8:11 PM EDT
Nautical Twilight 6:18 AM EDT 8:43 PM EDT
Astronomical Twilight 5:44 AM EDT 9:17 PM EDT
Moon 4:28 AM EDT 3:18 PM EDT
Length of Visible Light 13h 20m
Length of Day
12h 25m
Waning Crescent, 22% of the Moon is Illuminated
Mar 26
Waning Crescent
Mar 30
New
Apr 7
First Quarter
Apr 15
Full
Apr 22
Last Quarter

Hourly Weather History & Observations

Time (EDT) Temp. Windchill Dew Point Humidity Pressure Visibility Wind Dir Wind Speed Gust Speed Precip Events Conditions
12:15 AM 21.2 °F 9.5 °F 17.6 °F 86% 30.04 in 0.5 mi NW 11.5 mph 20.7 mph N/A Snow Heavy Snow
12:34 AM 21.0 °F 14.6 °F 18.0 °F 88% 30.04 in 1.5 mi NW 4.6 mph - N/A Snow Light Snow
12:54 AM 21.2 °F 13.6 °F 18.3 °F 89% 30.04 in 2.5 mi WNW 5.8 mph - N/A Snow Light Snow
1:15 AM 21.0 °F 10.6 °F 17.6 °F 87% 30.05 in 1.8 mi NNW 9.2 mph 18.4 mph N/A Snow Light Snow
1:34 AM 19.9 °F 9.3 °F 15.6 °F 83% 30.06 in 2.5 mi North 9.2 mph - N/A Snow Light Snow
1:55 AM 19.4 °F 9.5 °F 14.7 °F 82% 30.06 in 5.0 mi NNW 8.1 mph 16.1 mph N/A Snow Light Snow
2:15 AM 19.2 °F 9.3 °F 14.4 °F 81% 30.07 in 5.0 mi NNW 8.1 mph 16.1 mph N/A Snow Light Snow
2:34 AM 18.9 °F 9.8 °F 14.5 °F 83% 30.08 in 4.0 mi NNW 6.9 mph - N/A Snow Light Snow
2:54 AM 18.5 °F 5.5 °F 13.8 °F 82% 30.09 in 4.0 mi North 12.7 mph 18.4 mph N/A Snow Light Snow
3:15 AM 17.4 °F 5.4 °F 11.5 °F 78% 30.10 in 7.0 mi North 10.4 mph 17.3 mph N/A Snow Light Snow
3:34 AM 16.7 °F 5.3 °F 10.4 °F 76% 30.10 in 10.0 mi North 9.2 mph - N/A Snow Light Snow
3:54 AM 16.7 °F 8.3 °F 10.9 °F 78% 30.11 in 10.0 mi North 5.8 mph - N/A   Overcast
4:14 AM 15.6 °F 5.9 °F 9.9 °F 78% 30.12 in 10.0 mi NNW 6.9 mph - N/A   Overcast
4:34 AM 15.1 °F 6.4 °F 10.4 °F 82% 30.12 in 7.0 mi NNW 5.8 mph - N/A   Overcast
4:55 AM 15.4 °F 6.8 °F 11.1 °F 83% 30.13 in 4.0 mi North 5.8 mph - N/A Snow Light Snow
5:15 AM 14.9 °F 6.1 °F 10.4 °F 82% 30.13 in 10.0 mi North 5.8 mph - N/A   Overcast
5:34 AM 14.7 °F 4.8 °F 9.9 °F 81% 30.14 in 10.0 mi North 6.9 mph - N/A   Overcast
5:54 AM 13.8 °F 8.0 °F 8.6 °F 80% 30.15 in 10.0 mi North 3.5 mph - N/A   Overcast
6:15 AM 12.9 °F - 8.6 °F 83% 30.16 in 10.0 mi Calm Calm - N/A   Overcast
6:34 AM 12.2 °F - 8.1 °F 83% 30.17 in 10.0 mi Calm Calm - N/A Snow Light Snow
6:54 AM 11.8 °F - 7.7 °F 83% 30.19 in 4.0 mi Calm Calm - N/A Snow Light Snow
7:15 AM 11.7 °F - 8.1 °F 85% 30.20 in 10.0 mi Calm Calm - N/A   Clear
7:34 AM 11.1 °F - 8.1 °F 87% 30.22 in 5.0 mi Calm Calm - N/A Snow Light Snow
7:54 AM 11.8 °F - 8.6 °F 87% 30.23 in 10.0 mi Calm Calm - N/A   Clear
8:14 AM 12.2 °F - 8.4 °F 85% 30.23 in 10.0 mi Calm Calm - N/A   Clear
8:34 AM 12.6 °F 3.4 °F 8.1 °F 82% 30.24 in 10.0 mi NNW 5.8 mph - N/A   Clear
8:54 AM 13.8 °F 6.2 °F 7.7 °F 77% 30.24 in 10.0 mi NNW 4.6 mph - N/A   Clear
9:14 AM 15.4 °F 6.8 °F 7.5 °F 71% 30.25 in 10.0 mi North 5.8 mph - N/A   Clear
9:35 AM 15.8 °F 8.6 °F 7.3 °F 69% 30.26 in 10.0 mi North 4.6 mph - N/A   Clear
9:54 AM 16.3 °F 6.7 °F 6.4 °F 65% 30.26 in 10.0 mi NW 6.9 mph - N/A   Scattered Clouds
10:14 AM 18.1 °F 7.9 °F 5.2 °F 57% 30.27 in 10.0 mi NNW 8.1 mph - N/A   Scattered Clouds
10:34 AM 18.5 °F 7.5 °F 5.0 °F 56% 30.28 in 10.0 mi NW 9.2 mph - N/A   Mostly Cloudy
10:54 AM 19.9 °F 10.1 °F 5.2 °F 53% 30.28 in 10.0 mi NW 8.1 mph - N/A   Mostly Cloudy
11:15 AM 20.3 °F 9.8 °F 3.7 °F 49% 30.28 in 10.0 mi WNW 9.2 mph 17.3 mph N/A   Scattered Clouds
11:34 AM 20.7 °F 10.2 °F 3.9 °F 48% 30.29 in 10.0 mi NW 9.2 mph 16.1 mph 0.01 in   Scattered Clouds
11:54 AM 20.8 °F 9.7 °F 5.4 °F 51% 30.29 in 10.0 mi WNW 10.4 mph 17.3 mph 0.01 in   Mostly Cloudy
12:15 PM 21.9 °F 11.7 °F 5.5 °F 49% 30.29 in 10.0 mi West 9.2 mph 16.1 mph N/A   Mostly Cloudy
12:34 PM 22.3 °F 10.2 °F 6.4 °F 51% 30.29 in 10.0 mi West 12.7 mph - N/A   Overcast
12:54 PM 22.5 °F 9.9 °F 6.8 °F 51% 30.29 in 10.0 mi West 13.8 mph 20.7 mph N/A   Overcast
1:15 PM 22.1 °F 14.7 °F 7.0 °F 52% 30.27 in 10.0 mi WNW 5.8 mph - N/A   Mostly Cloudy
1:34 PM 23.5 °F 14.5 °F 10.9 °F 59% 30.28 in 10.0 mi NW 8.1 mph - N/A   Mostly Cloudy
1:54 PM 23.9 °F 13.5 °F 6.4 °F 47% 30.27 in 10.0 mi NW 10.4 mph - N/A   Mostly Cloudy
2:14 PM 23.7 °F 13.3 °F 6.6 °F 48% 30.28 in 10.0 mi WNW 10.4 mph 16.1 mph N/A   Scattered Clouds
2:34 PM 24.8 °F 11.9 °F 6.8 °F 46% 30.28 in 10.0 mi West 16.1 mph - N/A   Mostly Cloudy
2:54 PM 24.1 °F 12.0 °F 6.4 °F 47% 30.28 in 10.0 mi WNW 13.8 mph 17.3 mph N/A   Overcast
3:14 PM 25.5 °F 15.5 °F 8.8 °F 49% 30.26 in 10.0 mi West 10.4 mph - N/A   Overcast
3:34 PM 25.3 °F 16.0 °F 6.6 °F 45% 30.25 in 10.0 mi West 9.2 mph - N/A   Overcast
3:54 PM 26.2 °F 17.8 °F 8.8 °F 48% 30.25 in 10.0 mi NW 8.1 mph - N/A   Mostly Cloudy
4:15 PM 25.9 °F 16.0 °F 7.5 °F 46% 30.25 in 10.0 mi WNW 10.4 mph 16.1 mph N/A   Scattered Clouds
4:34 PM 25.7 °F 15.1 °F 7.5 °F 46% 30.25 in 10.0 mi WNW 11.5 mph 17.3 mph N/A   Scattered Clouds
4:55 PM 26.6 °F 17.5 °F 6.8 °F 43% 30.25 in 10.0 mi WNW 9.2 mph - N/A   Mostly Cloudy
5:14 PM 26.2 °F 15.8 °F 8.1 °F 46% 30.25 in 10.0 mi West 11.5 mph - N/A   Mostly Cloudy
5:35 PM 26.8 °F 17.1 °F 7.3 °F 44% 30.25 in 10.0 mi West 10.4 mph - N/A   Scattered Clouds
5:54 PM 26.1 °F 21.9 °F 7.7 °F 46% 30.25 in 10.0 mi SW 3.5 mph - N/A   Clear
6:14 PM 26.1 °F 19.4 °F 7.7 °F 46% 30.24 in 10.0 mi West 5.8 mph - N/A   Clear
6:34 PM 26.1 °F 19.4 °F 7.7 °F 46% 30.25 in 10.0 mi WSW 5.8 mph - N/A   Clear
6:54 PM 25.9 °F 17.4 °F 7.9 °F 47% 30.25 in 10.0 mi West 8.1 mph - N/A   Clear
7:14 PM 25.5 °F 18.7 °F 8.8 °F 49% 30.25 in 10.0 mi West 5.8 mph - N/A   Clear
7:35 PM 24.8 °F 20.5 °F 9.0 °F 51% 30.25 in 10.0 mi WSW 3.5 mph - N/A   Clear
7:54 PM 24.4 °F - 8.4 °F 51% 30.24 in 10.0 mi Calm Calm - N/A   Clear
8:14 PM 23.7 °F - 7.5 °F 50% 30.25 in 10.0 mi Calm Calm - N/A   Clear
8:34 PM 21.9 °F - 8.6 °F 57% 30.24 in 10.0 mi Calm Calm - N/A   Clear
8:54 PM 21.0 °F - 10.2 °F 63% 30.24 in 10.0 mi Calm Calm - N/A   Clear
9:14 PM 21.2 °F - 10.4 °F 63% 30.24 in 10.0 mi Calm Calm - N/A   Clear
9:34 PM 20.5 °F - 11.1 °F 67% 30.25 in 10.0 mi Calm Calm - N/A   Clear
9:55 PM 18.3 °F - 12.2 °F 77% 30.25 in 10.0 mi Calm Calm - N/A   Clear
10:15 PM 19.9 °F - 10.4 °F 67% 30.25 in 10.0 mi Calm Calm - N/A   Clear
10:34 PM 18.9 °F 13.7 °F 10.9 °F 71% 30.26 in 10.0 mi East 3.5 mph - N/A   Clear
10:55 PM 18.7 °F - 9.5 °F 67% 30.26 in 10.0 mi Calm Calm - N/A   Clear
11:15 PM 18.5 °F 13.3 °F 9.7 °F 68% 30.26 in 10.0 mi ESE 3.5 mph - N/A   Clear
11:34 PM 19.2 °F - 9.9 °F 67% 30.26 in 10.0 mi Calm Calm - N/A   Clear
11:55 PM 18.9 °F - 9.7 °F 67% 30.27 in 10.0 mi Calm Calm - N/A   Clear